Regional Weather Roundup
Issued by NWS Jackson, KY

Home | Current Version | Previous Version | Text Only | Print | Product List | Glossary On
Versions: 1 2 3 4 5 6 7 8 9 10 11 12 13 14 15 16 17 18 19 20 21 22 23 24 25 26 27 28 29 30 31 32 33 34 35 36 37 38 39 40 41 42 43 44 45 46 47 48 49 50
000
ASUS43 KJKL 150310
RWRJKL

EAST KENTUCKY HOURLY WEATHER ROUNDUP
NATIONAL WEATHER SERVICE JACKSON KY
1000 PM EST THU DEC 14 2017

NOTE: "FAIR" INDICATES FEW OR NO CLOUDS BELOW 12,000 FEET WITH
NO SIGNIFICANT WEATHER AND/OR OBSTRUCTIONS TO VISIBILITY.

* THESE REPORTS ARE NOT UNDER NWS QUALITY CONTROL AND MAY NOT
  REPORT WEATHER SUCH AS PRECIPITATION AND FOG.

KYZ079-080-083-085-087-088-110-112-115-119-120-150400
...EASTERN KENTUCKY...

CITY           SKY/WX    TMP DP  RH WIND       PRES   REMARKS
JACKSON        CLOUDY    30  20  66 CALM      30.03S
LONDON         CLOUDY    32  21  64 NE3       30.02R
SOMERSET*      CLOUDY    32  21  64 N5        30.06S WCI  27
MONTICELLO*    CLOUDY    34  25  69 CALM      30.07R
WILLIAMSBURG*  CLOUDY    32  23  69 CALM      30.03R
MIDDLESBORO*   CLEAR     28  24  86 CALM      30.02S
HARLAN APT*    CLOUDY    32  23  69 CALM      30.01S
PIKE CO APT*   CLOUDY    30  21  69 N3        30.01F
BIG SANDY APT* CLOUDY    30  21  69 CALM      30.03S
MOREHEAD APT*  CLOUDY    27  18  69 NW6       30.07R WCI  20
$$

KYZ035-036-041-042-044-050-067-078-099-150400
...CENTRAL KENTUCKY...

CITY           SKY/WX    TMP DP  RH WIND       PRES   REMARKS
MT STERLING*   PTCLDY    27  19  74 NE3       30.07R
FLEMING/MASON* PTCLDY    23  17  77 N3        30.08S
DANVILLE*      CLOUDY    28  19  69 N5        30.05S WCI  23
LEXINGTON      CLOUDY    24  17  74 NE7       30.06R WCI  16
FRANKFORT      CLOUDY    28  15  58 NE6       30.07R WCI  22
LOUISVILLE     PTCLDY    27  17  66 N6        30.10R WCI  20
LEBANON*         N/A     28  19  69 CALM      30.06S
GLASGOW*       CLOUDY    32  22  67 N3        30.07S
BOWLING GREEN  CLOUDY    33  22  63 NW6       30.09S WCI  28
$$

KYZ091>093-OHZ055-061-077-WVZ005-015-034-035-042-150400
...SOUTHERN OHIO/WEST VIRGINIA...

CITY           SKY/WX    TMP DP  RH WIND       PRES   REMARKS
COVINGTON      CLOUDY    25  16  68 NE7       30.07S WCI  17
COLUMBUS       CLOUDY    22  17  81 CALM      30.08R
DAYTON         CLOUDY    20  17  88 W3        30.08R
WILMINGTON     PTCLDY    21  16  81 N6        30.06R WCI  13
HUNTINGTON     PTCLDY    28  15  58 NE6       30.06F WCI  22
CHARLESTON     CLOUDY    29  19  66 CALM      30.04F
PINEVILLE*     CLOUDY    28  24  83 MISG      30.05R
BECKLEY        CLEAR     25  18  74 CALM      29.96R
BLUEFIELD      MOCLDY    26  19  74 N3        29.96R
LOGAN CO APT*  CLOUDY    30  21  69 CALM      30.00S
$$

VAZ002-007-008-TNZ017-027-036-066-071-150400
...SOUTHWEST VIRGINIA/EAST TENNESSEE...

CITY           SKY/WX    TMP DP  RH WIND       PRES   REMARKS
WISE*          CLOUDY    30  25  80 CALM      29.96F
JONESVILLE*      N/A     27  25  93 CALM      30.03S
ABINGDON*      CLEAR     29  25  84 CALM      29.98R
BRISTOL        PTCLDY    30  26  85 CALM      29.99R
MORRISTOWN*    CLOUDY    32  27  80 CALM      30.00R
SEVIERVILLE*   CLOUDY    32  27  80 CALM      30.01R
KNOXVILLE      PTCLDY    35  28  75 N5        30.01R WCI  31
LAFOLLETTE*    PTCLDY    28  25  86 CALM      30.05S
OAK RIDGE      CLEAR     33  27  78 CALM      30.04R
CROSSVILLE     CLOUDY    31  24  75 N3        30.00R
NASHVILLE      CLOUDY    34  22  61 NW7       30.10R WCI  28
$$

...KEY TO REMARKS...
VSB - VISIBILITY IN MILES
WCI - WIND CHILL INDEX
HX  - HEAT INDEX

$$



USA.gov is the U.S. government's official web portal to all federal, state and local government web resources and services.